| time (UTC) | temp F | wind direction | speed MPH | gust MPH | rain 1hr in | rain 24hr in | rain mn in | humidity % | barometer mb |
| 20260906223752 | 65 | 29 | 13.0 | 16.0 | 0.00 | 0.05 | 0.05 | 83 | 1022.8 |
| 20260906223249 | 66 | 29 | 13.0 | 16.0 | 0.00 | 0.05 | 0.05 | 83 | 1022.7 |
| 20260906222746 | 66 | 29 | 13.0 | 16.0 | 0.00 | 0.05 | 0.05 | 85 | 1022.8 |
| 20260906222245 | 67 | 29 | 13.0 | 16.0 | 0.00 | 0.05 | 0.05 | 86 | 1022.7 |
| 20260906221743 | 67 | 29 | 13.0 | 16.0 | 0.00 | 0.05 | 0.05 | 87 | 1022.8 |
| 20260906221238 | 67 | 29 | 13.0 | 16.0 | 0.00 | 0.05 | 0.05 | 86 | 1022.8 |
| 20260906220733 | 68 | 29 | 13.0 | 16.0 | 0.00 | 0.05 | 0.05 | 87 | 1022.8 |
| 20260906220228 | 69 | 29 | 13.0 | 16.0 | 0.00 | 0.05 | 0.05 | 84 | 1022.6 |
| 20260906215727 | 69 | 29 | 13.0 | 16.0 | 0.00 | 0.05 | 0.05 | 83 | 1022.6 |
| 20260906215226 | 69 | 29 | 13.0 | 16.0 | 0.00 | 0.05 | 0.05 | 84 | 1022.4 |
| 20260906214724 | 70 | 29 | 13.0 | 16.0 | 0.00 | 0.05 | 0.05 | 83 | 1022.4 |
| 20260906214220 | 72 | 29 | 13.0 | 16.0 | 0.00 | 0.05 | 0.05 | 78 | 1022.4 |
| 20260906213714 | 72 | 29 | 13.0 | 16.0 | 0.00 | 0.05 | 0.05 | 78 | 1022.5 |
| 20260906213213 | 72 | 29 | 13.0 | 16.0 | 0.00 | 0.05 | 0.05 | 77 | 1022.4 |
| 20260906212711 | 72 | 29 | 13.0 | 16.0 | 0.00 | 0.05 | 0.05 | 78 | 1022.3 |
| 20260906212207 | 72 | 29 | 13.0 | 16.0 | 0.00 | 0.05 | 0.05 | 77 | 1022.4 |
| 20260906211707 | 71 | 29 | 13.0 | 16.0 | 0.00 | 0.05 | 0.05 | 78 | 1022.2 |
| 20260906211202 | 71 | 29 | 13.0 | 16.0 | 0.00 | 0.05 | 0.05 | 79 | 1022.3 |
| 20260906210657 | 71 | 29 | 13.0 | 16.0 | 0.00 | 0.05 | 0.05 | 76 | 1022.2 |
| 20260906210157 | 71 | 29 | 13.0 | 16.0 | 0.00 | 0.05 | 0.05 | 79 | 1022.1 |
| 20260906205652 | 71 | 29 | 13.0 | 16.0 | 0.00 | 0.05 | 0.05 | 81 | 1022.3 |
| 20260906205149 | 72 | 29 | 13.0 | 16.0 | 0.00 | 0.05 | 0.05 | 80 | 1022.3 |
| 20260906204648 | 73 | 29 | 13.0 | 16.0 | 0.00 | 0.05 | 0.05 | 82 | 1022.5 |
| 20260906204143 | 72 | 29 | 13.0 | 16.0 | 0.00 | 0.05 | 0.05 | 83 | 1022.3 |
| 20260906203637 | 71 | 29 | 13.0 | 16.0 | 0.00 | 0.05 | 0.05 | 87 | 1022.2 |
| 20260906203137 | 69 | 29 | 13.0 | 16.0 | 0.00 | 0.05 | 0.05 | 91 | 1022.2 |
| 20260906202635 | 67 | 29 | 13.0 | 16.0 | 0.00 | 0.05 | 0.05 | 93 | 1022.2 |
| 20260906202133 | 65 | 29 | 13.0 | 16.0 | 0.00 | 0.05 | 0.05 | 94 | 1022.2 |
| 20260906201629 | 64 | 29 | 13.0 | 16.0 | 0.00 | 0.05 | 0.05 | 94 | 1022.1 |
| 20260906201128 | 64 | 29 | 13.0 | 16.0 | 0.00 | 0.05 | 0.05 | 94 | 1022.2 |
| 20260906200624 | 64 | 29 | 13.0 | 16.0 | 0.02 | 0.05 | 0.05 | 93 | 1022.2 |
| 20260906200120 | 65 | 29 | 13.0 | 16.0 | 0.26 | 0.05 | 0.05 | 90 | 1022.2 |
| 20260906195615 | 66 | 29 | 13.0 | 16.0 | 0.21 | 0.04 | 0.04 | 90 | 1022.3 |
| 20260906195112 | 67 | 29 | 13.0 | 16.0 | 0.00 | 0.00 | 0.00 | 81 | 1022.3 |
| 20260906194607 | 69 | 29 | 13.0 | 16.0 | 0.00 | 0.00 | 0.00 | 76 | 1022.1 |
| 20260906194103 | 70 | 29 | 13.0 | 16.0 | 0.00 | 0.00 | 0.00 | 77 | 1022.0 |
| 20260906193602 | 70 | 29 | 13.0 | 16.0 | 0.00 | 0.00 | 0.00 | 73 | 1021.9 |
| 20260906193058 | 73 | 29 | 13.0 | 16.0 | 0.00 | 0.00 | 0.00 | 70 | 1021.9 |
| 20260906192553 | 72 | 29 | 13.0 | 16.0 | 0.00 | 0.00 | 0.00 | 73 | 1022.0 |
| 20260906192052 | 74 | 29 | 13.0 | 16.0 | 0.00 | 0.00 | 0.00 | 71 | 1022.0 |
| 20260906191548 | 73 | 29 | 13.0 | 16.0 | 0.00 | 0.00 | 0.00 | 71 | 1021.9 |
| 20260906191047 | 72 | 29 | 13.0 | 16.0 | 0.00 | 0.00 | 0.00 | 73 | 1022.0 |
| 20260906190546 | 71 | 29 | 13.0 | 16.0 | 0.00 | 0.00 | 0.00 | 79 | 1022.0 |
| 20260906190041 | 71 | 29 | 13.0 | 16.0 | 0.00 | 0.00 | 0.00 | 81 | 1022.0 |
| 20260906185540 | 69 | 29 | 13.0 | 16.0 | 0.00 | 0.00 | 0.00 | 84 | 1021.9 |
| 20260906185033 | 68 | 29 | 13.0 | 16.0 | 0.00 | 0.00 | 0.00 | 84 | 1022.2 |
| 20260906184528 | 68 | 29 | 13.0 | 16.0 | 0.00 | 0.00 | 0.00 | 80 | 1022.0 |
| 20260906184025 | 69 | 29 | 13.0 | 16.0 | 0.00 | 0.00 | 0.00 | 80 | 1022.0 |
| 20260906183520 | 70 | 29 | 13.0 | 16.0 | 0.00 | 0.00 | 0.00 | 79 | 1022.0 |
| 20260906183016 | 70 | 29 | 13.0 | 16.0 | 0.00 | 0.00 | 0.00 | 75 | 1022.1 |
| 20260906182510 | 71 | 29 | 13.0 | 16.0 | 0.00 | 0.00 | 0.00 | 70 | 1022.0 |
| 20260906182007 | 71 | 29 | 13.0 | 16.0 | 0.00 | 0.00 | 0.00 | 71 | 1021.8 |
| 20260906181501 | 74 | 29 | 13.0 | 16.0 | 0.00 | 0.00 | 0.00 | 66 | 1021.9 |
| 20260906180957 | 74 | 29 | 13.0 | 16.0 | 0.00 | 0.00 | 0.00 | 73 | 1021.9 |
| 20260906180453 | 70 | 29 | 13.0 | 16.0 | 0.00 | 0.00 | 0.00 | 76 | 1022.1 |
| 20260906175951 | 70 | 29 | 13.0 | 16.0 | 0.00 | 0.00 | 0.00 | 76 | 1022.0 |
| 20260906175445 | 69 | 29 | 13.0 | 16.0 | 0.00 | 0.00 | 0.00 | 76 | 1022.1 |
| 20260906174943 | 70 | 29 | 13.0 | 16.0 | 0.00 | 0.00 | 0.00 | 76 | 1022.0 |
| 20260906174437 | 71 | 29 | 13.0 | 16.0 | 0.00 | 0.00 | 0.00 | 77 | 1022.1 |
| 20260906173932 | 70 | 29 | 13.0 | 16.0 | 0.00 | 0.00 | 0.00 | 72 | 1022.0 |
| 20260906173427 | 72 | 29 | 13.0 | 16.0 | 0.00 | 0.00 | 0.00 | 68 | 1022.0 |
| 20260906172927 | 75 | 29 | 13.0 | 16.0 | 0.00 | 0.00 | 0.00 | 62 | 1022.1 |
| 20260906172424 | 76 | 29 | 13.0 | 16.0 | 0.00 | 0.00 | 0.00 | 63 | 1022.1 |
| 20260906171918 | 75 | 29 | 13.0 | 16.0 | 0.00 | 0.00 | 0.00 | 63 | 1022.0 |
| 20260906171413 | 73 | 29 | 13.0 | 16.0 | 0.00 | 0.00 | 0.00 | 66 | 1022.1 |
| 20260906170909 | 72 | 29 | 13.0 | 16.0 | 0.00 | 0.00 | 0.00 | 70 | 1022.1 |
| 20260906170405 | 70 | 29 | 13.0 | 16.0 | 0.00 | 0.00 | 0.00 | 73 | 1022.1 |
| 20260906165901 | 70 | 29 | 13.0 | 16.0 | 0.00 | 0.00 | 0.00 | 72 | 1022.3 |
| 20260906165355 | 71 | 29 | 13.0 | 16.0 | 0.00 | 0.00 | 0.00 | 71 | 1022.4 |
| 20260906164849 | 71 | 29 | 13.0 | 16.0 | 0.00 | 0.00 | 0.00 | 73 | 1022.3 |
| 20260906164348 | 71 | 29 | 13.0 | 16.0 | 0.00 | 0.00 | 0.00 | 71 | 1022.3 |
| 20260906163844 | 74 | 29 | 13.0 | 16.0 | 0.00 | 0.00 | 0.00 | 67 | 1022.3 |
| 20260906163341 | 71 | 29 | 13.0 | 16.0 | 0.00 | 0.00 | 0.00 | 74 | 1022.4 |
| 20260906162838 | 71 | 29 | 13.0 | 16.0 | 0.00 | 0.00 | 0.00 | 71 | 1022.3 |
| 20260906162337 | 72 | 29 | 13.0 | 16.0 | 0.00 | 0.00 | 0.00 | 71 | 1022.4 |
| 20260906161832 | 70 | 29 | 13.0 | 16.0 | 0.00 | 0.00 | 0.00 | 74 | 1022.4 |
| 20260906161331 | 71 | 29 | 13.0 | 16.0 | 0.00 | 0.00 | 0.00 | 74 | 1022.5 |
| 20260906160830 | 69 | 29 | 13.0 | 16.0 | 0.00 | 0.00 | 0.00 | 74 | 1022.2 |
| 20260906160324 | 69 | 29 | 13.0 | 16.0 | 0.00 | 0.00 | 0.00 | 77 | 1022.6 |
| 20260906155823 | 71 | 29 | 13.0 | 16.0 | 0.00 | 0.00 | 0.00 | 71 | 1022.5 |
| 20260906155317 | 71 | 29 | 13.0 | 16.0 | 0.00 | 0.00 | 0.00 | 74 | 1022.4 |
| 20260906154813 | 70 | 29 | 13.0 | 16.0 | 0.00 | 0.00 | 0.00 | 76 | 1022.7 |
| 20260906154308 | 70 | 29 | 13.0 | 16.0 | 0.00 | 0.00 | 0.00 | 75 | 1022.8 |
| 20260906153806 | 70 | 29 | 13.0 | 16.0 | 0.00 | 0.00 | 0.00 | 74 | 1022.7 |
| 20260906153300 | 69 | 29 | 13.0 | 16.0 | 0.00 | 0.00 | 0.00 | 78 | 1022.6 |
| 20260906152755 | 69 | 29 | 13.0 | 16.0 | 0.00 | 0.00 | 0.00 | 74 | 1022.7 |
| 20260906152251 | 69 | 29 | 13.0 | 16.0 | 0.00 | 0.00 | 0.00 | 75 | 1022.6 |
| 20260906151750 | 69 | 29 | 13.0 | 16.0 | 0.00 | 0.00 | 0.00 | 75 | 1022.8 |
| 20260906151246 | 68 | 29 | 13.0 | 16.0 | 0.00 | 0.00 | 0.00 | 76 | 1022.6 |
| 20260906150741 | 69 | 29 | 13.0 | 16.0 | 0.00 | 0.00 | 0.00 | 76 | 1022.5 |
| 20260906150236 | 69 | 29 | 13.0 | 16.0 | 0.00 | 0.00 | 0.00 | 77 | 1022.6 |
| 20260906145735 | 67 | 29 | 13.0 | 16.0 | 0.00 | 0.00 | 0.00 | 79 | 1022.6 |
| 20260906145234 | 67 | 29 | 13.0 | 16.0 | 0.00 | 0.00 | 0.00 | 80 | 1022.7 |
| 20260906144730 | 66 | 29 | 13.0 | 16.0 | 0.00 | 0.00 | 0.00 | 80 | 1022.6 |
| 20260906144224 | 66 | 29 | 13.0 | 16.0 | 0.00 | 0.00 | 0.00 | 82 | 1022.6 |
| 20260906143724 | 67 | 29 | 13.0 | 16.0 | 0.00 | 0.00 | 0.00 | 82 | 1022.8 |
| 20260906143221 | 66 | 29 | 13.0 | 16.0 | 0.00 | 0.00 | 0.00 | 83 | 1022.8 |
| 20260906142720 | 65 | 29 | 13.0 | 16.0 | 0.00 | 0.00 | 0.00 | 83 | 1022.7 |
| 20260906142216 | 65 | 29 | 13.0 | 16.0 | 0.00 | 0.00 | 0.00 | 83 | 1022.6 |
| 20260906141714 | 64 | 29 | 13.0 | 16.0 | 0.00 | 0.00 | 0.00 | 84 | 1022.4 |
| 20260906141209 | 64 | 29 | 13.0 | 16.0 | 0.00 | 0.00 | 0.00 | 85 | 1022.5 |
| 20260906140709 | 64 | 29 | 13.0 | 16.0 | 0.00 | 0.00 | 0.00 | 87 | 1022.5 |
| 20260906140204 | 64 | 29 | 13.0 | 16.0 | 0.00 | 0.00 | 0.00 | 86 | 1022.5 |
| 20260906135700 | 64 | 29 | 13.0 | 16.0 | 0.00 | 0.00 | 0.00 | 87 | 1022.5 |
| 20260906135157 | 63 | 29 | 13.0 | 16.0 | 0.00 | 0.00 | 0.00 | 87 | 1022.3 |
| 20260906134653 | 64 | 29 | 13.0 | 16.0 | 0.00 | 0.00 | 0.00 | 88 | 1022.5 |
| 20260906134152 | 63 | 29 | 13.0 | 16.0 | 0.00 | 0.00 | 0.00 | 85 | 1022.4 |
| 20260906133648 | 64 | 29 | 13.0 | 16.0 | 0.00 | 0.00 | 0.00 | 87 | 1022.5 |
| 20260906133143 | 64 | 29 | 13.0 | 16.0 | 0.00 | 0.00 | 0.00 | 92 | 1022.4 |
| 20260906132639 | 64 | 29 | 13.0 | 16.0 | 0.00 | 0.00 | 0.00 | 93 | 1022.3 |
| 20260906132134 | 63 | 29 | 13.0 | 16.0 | 0.00 | 0.00 | 0.00 | 92 | 1022.2 |
| 20260906131630 | 62 | 29 | 13.0 | 16.0 | 0.00 | 0.00 | 0.00 | 92 | 1022.3 |
| 20260906131125 | 63 | 29 | 13.0 | 16.0 | 0.00 | 0.00 | 0.00 | 93 | 1022.2 |
| 20260906130620 | 63 | 29 | 13.0 | 16.0 | 0.00 | 0.00 | 0.00 | 93 | 1022.2 |
| 20260906130115 | 62 | 29 | 13.0 | 16.0 | 0.00 | 0.00 | 0.00 | 92 | 1022.2 |
| 20260906125613 | 62 | 29 | 13.0 | 16.0 | 0.00 | 0.00 | 0.00 | 94 | 1022.2 |
| 20260906125112 | 62 | 29 | 13.0 | 16.0 | 0.00 | 0.00 | 0.00 | 94 | 1022.2 |
| 20260906124607 | 62 | 29 | 13.0 | 16.0 | 0.00 | 0.00 | 0.00 | 94 | 1022.2 |
| 20260906124102 | 62 | 29 | 13.0 | 16.0 | 0.00 | 0.00 | 0.00 | 94 | 1022.2 |
| 20260906123601 | 61 | 29 | 13.0 | 16.0 | 0.00 | 0.00 | 0.00 | 94 | 1022.1 |
| 20260906123057 | 60 | 29 | 13.0 | 16.0 | 0.00 | 0.00 | 0.00 | 94 | 1022.1 |
| 20260906122555 | 60 | 29 | 13.0 | 16.0 | 0.00 | 0.00 | 0.00 | 94 | 1021.9 |
| 20260906122052 | 60 | 29 | 13.0 | 16.0 | 0.00 | 0.00 | 0.00 | 95 | 1021.8 |
| 20260906121548 | 60 | 29 | 13.0 | 16.0 | 0.00 | 0.00 | 0.00 | 95 | 1021.8 |
| 20260906121044 | 60 | 29 | 13.0 | 16.0 | 0.00 | 0.00 | 0.00 | 96 | 1021.8 |
| 20260906120539 | 60 | 29 | 13.0 | 16.0 | 0.00 | 0.00 | 0.00 | 96 | 1021.7 |
| 20260906120037 | 60 | 29 | 13.0 | 16.0 | 0.00 | 0.00 | 0.00 | 97 | 1021.8 |
| 20260906115536 | 60 | 29 | 13.0 | 16.0 | 0.00 | 0.00 | 0.00 | 97 | 1021.7 |
| 20260906115031 | 60 | 29 | 13.0 | 16.0 | 0.00 | 0.00 | 0.00 | 98 | 1021.6 |
| 20260906114525 | 60 | 29 | 13.0 | 16.0 | 0.00 | 0.00 | 0.00 | 98 | 1021.8 |
| 20260906114021 | 60 | 29 | 13.0 | 16.0 | 0.00 | 0.00 | 0.00 | 99 | 1021.6 |
| 20260906113520 | 60 | 29 | 13.0 | 16.0 | 0.00 | 0.00 | 0.00 | 99 | 1021.7 |
| 20260906113016 | 60 | 29 | 13.0 | 16.0 | 0.00 | 0.00 | 0.00 | 99 | 1021.3 |
| 20260906112510 | 60 | 29 | 13.0 | 16.0 | 0.00 | 0.00 | 0.00 | 99 | 1021.6 |
| 20260906112007 | 59 | 29 | 13.0 | 16.0 | 0.00 | 0.00 | 0.00 | 99 | 1021.4 |
| 20260906111506 | 59 | 29 | 13.0 | 16.0 | 0.00 | 0.00 | 0.00 | 99 | 1021.4 |
| 20260906111001 | 59 | 29 | 13.0 | 16.0 | 0.00 | 0.00 | 0.00 | 99 | 1021.3 |
| 20260906110456 | 59 | 29 | 13.0 | 16.0 | 0.00 | 0.00 | 0.00 | 99 | 1021.3 |
| 20260906105955 | 59 | 29 | 13.0 | 16.0 | 0.00 | 0.00 | 0.00 | 98 | 1021.1 |
| 20260906105451 | 59 | 29 | 13.0 | 16.0 | 0.00 | 0.00 | 0.00 | 98 | 1021.0 |
| 20260906104947 | 59 | 29 | 13.0 | 16.0 | 0.00 | 0.00 | 0.00 | 98 | 1020.9 |
| 20260906104445 | 59 | 29 | 13.0 | 16.0 | 0.00 | 0.00 | 0.00 | 98 | 1020.7 |
| 20260906103944 | 59 | 29 | 13.0 | 16.0 | 0.00 | 0.00 | 0.00 | 99 | 1020.7 |
| 20260906103443 | 59 | 29 | 13.0 | 16.0 | 0.00 | 0.00 | 0.00 | 99 | 1020.6 |
| 20260906102938 | 59 | 29 | 13.0 | 16.0 | 0.00 | 0.00 | 0.00 | 99 | 1020.6 |
| 20260906102433 | 59 | 29 | 13.0 | 16.0 | 0.00 | 0.00 | 0.00 | 99 | 1020.6 |
| 20260906101933 | 59 | 29 | 13.0 | 16.0 | 0.00 | 0.00 | 0.00 | 99 | 1020.6 |
| 20260906101429 | 59 | 29 | 13.0 | 16.0 | 0.00 | 0.00 | 0.00 | 99 | 1020.4 |
| 20260906100924 | 59 | 29 | 13.0 | 16.0 | 0.00 | 0.00 | 0.00 | 98 | 1020.5 |
| 20260906100423 | 59 | 29 | 13.0 | 16.0 | 0.00 | 0.00 | 0.00 | 98 | 1020.4 |
| 20260906095918 | 59 | 29 | 13.0 | 16.0 | 0.00 | 0.00 | 0.00 | 98 | 1020.4 |
| 20260906095414 | 58 | 29 | 13.0 | 16.0 | 0.00 | 0.00 | 0.00 | 98 | 1020.3 |
| 20260906094908 | 59 | 29 | 13.0 | 16.0 | 0.00 | 0.00 | 0.00 | 98 | 1020.1 |
| 20260906094403 | 59 | 29 | 13.0 | 16.0 | 0.00 | 0.00 | 0.00 | 98 | 1020.1 |
| 20260906093859 | 59 | 29 | 13.0 | 16.0 | 0.00 | 0.00 | 0.00 | 98 | 1020.2 |
| 20260906093355 | 59 | 29 | 13.0 | 16.0 | 0.00 | 0.00 | 0.00 | 98 | 1020.1 |
| 20260906092855 | 59 | 29 | 13.0 | 16.0 | 0.00 | 0.00 | 0.00 | 98 | 1020.1 |
| 20260906092349 | 59 | 29 | 13.0 | 16.0 | 0.00 | 0.00 | 0.00 | 98 | 1020.1 |
| 20260906091845 | 59 | 29 | 13.0 | 16.0 | 0.00 | 0.00 | 0.00 | 98 | 1020.1 |
| 20260906091340 | 59 | 29 | 13.0 | 16.0 | 0.00 | 0.00 | 0.00 | 98 | 1020.0 |
| 20260906090832 | 59 | 29 | 13.0 | 16.0 | 0.00 | 0.00 | 0.00 | 99 | 1020.0 |
| 20260906090330 | 59 | 29 | 13.0 | 16.0 | 0.00 | 0.00 | 0.00 | 99 | 1020.0 |
| 20260906085824 | 59 | 29 | 13.0 | 16.0 | 0.00 | 0.00 | 0.00 | 99 | 1020.0 |
| 20260906085323 | 59 | 29 | 13.0 | 16.0 | 0.00 | 0.00 | 0.00 | 98 | 1020.0 |
| 20260906084818 | 60 | 29 | 13.0 | 16.0 | 0.00 | 0.00 | 0.00 | 98 | 1019.8 |
| 20260906084318 | 60 | 29 | 13.0 | 16.0 | 0.00 | 0.00 | 0.00 | 98 | 1019.7 |
| 20260906083813 | 60 | 29 | 13.0 | 16.0 | 0.00 | 0.00 | 0.00 | 99 | 1019.8 |
| 20260906083308 | 60 | 29 | 13.0 | 16.0 | 0.00 | 0.00 | 0.00 | 99 | 1019.8 |
| 20260906082803 | 60 | 29 | 13.0 | 16.0 | 0.00 | 0.00 | 0.00 | 99 | 1019.8 |
| 20260906082258 | 60 | 29 | 13.0 | 16.0 | 0.00 | 0.00 | 0.00 | 99 | 1019.9 |
| 20260906081754 | 60 | 29 | 13.0 | 16.0 | 0.00 | 0.00 | 0.00 | 99 | 1019.7 |
| 20260906081249 | 60 | 29 | 13.0 | 16.0 | 0.00 | 0.00 | 0.00 | 99 | 1019.7 |
| 20260906080745 | 60 | 29 | 13.0 | 16.0 | 0.00 | 0.00 | 0.00 | 99 | 1019.7 |
| 20260906080242 | 60 | 29 | 13.0 | 16.0 | 0.00 | 0.00 | 0.00 | 99 | 1019.7 |
| 20260906075741 | 60 | 29 | 13.0 | 16.0 | 0.00 | 0.00 | 0.00 | 99 | 1019.6 |
| 20260906075236 | 61 | 29 | 13.0 | 16.0 | 0.00 | 0.00 | 0.00 | 99 | 1019.5 |
| 20260906074731 | 61 | 29 | 13.0 | 16.0 | 0.00 | 0.00 | 0.00 | 99 | 1019.3 |
| 20260906074230 | 61 | 29 | 13.0 | 16.0 | 0.00 | 0.00 | 0.00 | 99 | 1019.5 |
| 20260906073724 | 62 | 29 | 13.0 | 16.0 | 0.00 | 0.00 | 0.00 | 99 | 1019.6 |
| 20260906073219 | 62 | 29 | 13.0 | 16.0 | 0.00 | 0.00 | 0.00 | 99 | 1019.7 |
| 20260906072715 | 62 | 29 | 13.0 | 16.0 | 0.00 | 0.00 | 0.00 | 99 | 1019.7 |
| 20260906072210 | 62 | 29 | 13.0 | 16.0 | 0.00 | 0.00 | 0.00 | 98 | 1019.6 |
| 20260906071707 | 62 | 29 | 13.0 | 16.0 | 0.00 | 0.00 | 0.00 | 98 | 1019.8 |
| 20260906071206 | 62 | 29 | 13.0 | 16.0 | 0.02 | 0.00 | 0.00 | 98 | 1019.8 |
| 20260906070703 | 62 | 29 | 13.0 | 16.0 | 0.02 | 0.00 | 0.00 | 98 | 1019.7 |
| 20260906070158 | 62 | 29 | 13.0 | 16.0 | 0.00 | 0.00 | 0.00 | 98 | 1019.6 |
| 20260906065658 | 62 | 29 | 13.0 | 16.0 | 0.00 | 0.00 | 0.00 | 98 | 1019.5 |
| 20260906065153 | 62 | 29 | 13.0 | 16.0 | 0.00 | 0.00 | 0.00 | 98 | 1019.6 |
| 20260906064649 | 62 | 29 | 13.0 | 16.0 | 0.00 | 0.00 | 0.00 | 99 | 1019.6 |
| 20260906064144 | 62 | 29 | 13.0 | 16.0 | 0.00 | 0.00 | 0.00 | 98 | 1019.6 |
| 20260906063639 | 63 | 29 | 13.0 | 16.0 | 0.00 | 0.00 | 0.00 | 98 | 1019.7 |
| 20260906063135 | 62 | 29 | 13.0 | 16.0 | 0.00 | 0.00 | 0.00 | 98 | 1019.8 |
| 20260906062631 | 63 | 29 | 13.0 | 16.0 | 0.00 | 0.00 | 0.00 | 98 | 1019.7 |
| 20260906062129 | 62 | 29 | 13.0 | 16.0 | 0.00 | 0.00 | 0.00 | 98 | 1019.8 |
| 20260906061625 | 63 | 29 | 13.0 | 16.0 | 0.00 | 0.00 | 0.00 | 98 | 1019.8 |
| 20260906061125 | 62 | 29 | 13.0 | 16.0 | 0.00 | 0.00 | 0.00 | 98 | 1019.8 |
| 20260906060622 | 63 | 29 | 13.0 | 16.0 | 0.00 | 0.00 | 0.00 | 98 | 1019.9 |
| 20260906060119 | 63 | 29 | 13.0 | 16.0 | 0.00 | 0.00 | 0.00 | 98 | 1019.8 |
| 20260906055614 | 63 | 29 | 13.0 | 16.0 | 0.00 | 0.00 | 0.00 | 98 | 1019.7 |
| 20260906055109 | 63 | 29 | 13.0 | 16.0 | 0.00 | 0.00 | 0.00 | 98 | 1019.8 |
| 20260906054604 | 62 | 29 | 13.0 | 16.0 | 0.00 | 0.00 | 0.00 | 98 | 1019.8 |
| 20260906054059 | 62 | 29 | 13.0 | 16.0 | 0.00 | 0.00 | 0.00 | 98 | 1019.9 |
| 20260906053555 | 63 | 29 | 13.0 | 16.0 | 0.00 | 0.00 | 0.00 | 98 | 1020.0 |
| 20260906053051 | 62 | 29 | 13.0 | 16.0 | 0.00 | 0.00 | 0.00 | 98 | 1019.9 |
| 20260906052546 | 62 | 29 | 13.0 | 16.0 | 0.00 | 0.00 | 0.00 | 98 | 1020.0 |
| 20260906052043 | 62 | 29 | 13.0 | 16.0 | 0.00 | 0.00 | 0.00 | 98 | 1019.8 |
| 20260906051538 | 62 | 29 | 13.0 | 16.0 | 0.00 | 0.00 | 0.00 | 98 | 1019.9 |
| 20260906051034 | 62 | 29 | 13.0 | 16.0 | 0.00 | 0.00 | 0.00 | 98 | 1019.7 |
| 20260906050529 | 62 | 29 | 13.0 | 16.0 | 0.00 | 0.00 | 0.00 | 97 | 1019.9 |
| 20260906050024 | 62 | 29 | 13.0 | 16.0 | 0.00 | 0.00 | 0.00 | 97 | 1019.7 |
| 20260906045522 | 63 | 29 | 13.0 | 16.0 | 0.00 | 0.00 | 0.00 | 97 | 1019.9 |
| 20260906045018 | 63 | 29 | 13.0 | 16.0 | 0.00 | 0.00 | 0.00 | 97 | 1019.8 |
| 20260906044513 | 63 | 29 | 13.0 | 16.0 | 0.00 | 0.00 | 0.00 | 97 | 1019.7 |
| 20260906044009 | 63 | 29 | 13.0 | 16.0 | 0.00 | 0.00 | 0.00 | 97 | 1019.9 |
| 20260906043504 | 63 | 29 | 13.0 | 16.0 | 0.00 | 0.00 | 0.00 | 97 | 1019.8 |
| 20260906043000 | 63 | 29 | 13.0 | 16.0 | 0.00 | 0.00 | 0.00 | 97 | 1019.9 |
| 20260906042459 | 63 | 29 | 13.0 | 16.0 | 0.00 | 0.00 | 0.00 | 97 | 1019.8 |
| 20260906041959 | 63 | 29 | 13.0 | 16.0 | 0.00 | 0.00 | 0.00 | 97 | 1019.9 |
| 20260906041455 | 63 | 29 | 13.0 | 16.0 | 0.00 | 0.00 | 0.00 | 97 | 1019.8 |
| 20260906040955 | 64 | 29 | 13.0 | 16.0 | 0.00 | 0.00 | 0.00 | 97 | 1019.8 |
| 20260906040450 | 64 | 29 | 13.0 | 16.0 | 0.00 | 0.00 | 0.00 | 96 | 1019.7 |
| 20260906035945 | 64 | 29 | 13.0 | 16.0 | 0.00 | 0.00 | 0.00 | 96 | 1019.8 |
| 20260906035441 | 64 | 29 | 13.0 | 16.0 | 0.00 | 0.00 | 0.00 | 96 | 1019.7 |
| 20260906034936 | 64 | 29 | 13.0 | 16.0 | 0.00 | 0.00 | 0.00 | 95 | 1019.5 |
| 20260906034430 | 64 | 29 | 13.0 | 16.0 | 0.00 | 0.00 | 0.00 | 95 | 1019.7 |
| 20260906033926 | 64 | 29 | 13.0 | 16.0 | 0.00 | 0.00 | 0.00 | 95 | 1019.6 |
| 20260906033421 | 64 | 29 | 13.0 | 16.0 | 0.00 | 0.00 | 0.00 | 95 | 1019.5 |
| 20260906032916 | 64 | 29 | 13.0 | 16.0 | 0.00 | 0.00 | 0.00 | 94 | 1019.4 |
| 20260906032412 | 64 | 29 | 13.0 | 16.0 | 0.00 | 0.00 | 0.00 | 94 | 1019.7 |
| 20260906031906 | 65 | 29 | 13.0 | 16.0 | 0.00 | 0.00 | 0.00 | 93 | 1019.6 |
| 20260906031402 | 65 | 29 | 13.0 | 16.0 | 0.00 | 0.00 | 0.00 | 93 | 1019.4 |
| 20260906030857 | 65 | 29 | 13.0 | 16.0 | 0.00 | 0.00 | 0.00 | 93 | 1019.5 |
| 20260906030352 | 65 | 29 | 13.0 | 16.0 | 0.00 | 0.00 | 0.00 | 93 | 1019.2 |
| 20260906025847 | 65 | 29 | 13.0 | 16.0 | 0.00 | 0.00 | 0.00 | 92 | 1019.5 |
| 20260906025341 | 65 | 29 | 13.0 | 16.0 | 0.00 | 0.00 | 0.00 | 91 | 1019.5 |
| 20260906024840 | 65 | 29 | 13.0 | 16.0 | 0.00 | 0.00 | 0.00 | 91 | 1019.5 |
| 20260906024339 | 65 | 29 | 13.0 | 16.0 | 0.00 | 0.00 | 0.00 | 91 | 1019.6 |
| 20260906023835 | 65 | 29 | 13.0 | 16.0 | 0.00 | 0.00 | 0.00 | 91 | 1019.4 |
| 20260906023331 | 65 | 29 | 13.0 | 16.0 | 0.00 | 0.00 | 0.00 | 91 | 1019.6 |
| 20260906022826 | 65 | 29 | 13.0 | 16.0 | 0.00 | 0.00 | 0.00 | 91 | 1019.3 |
| 20260906022321 | 65 | 29 | 13.0 | 16.0 | 0.00 | 0.00 | 0.00 | 91 | 1019.3 |
| 20260906021817 | 65 | 29 | 13.0 | 16.0 | 0.00 | 0.00 | 0.00 | 92 | 1019.4 |
| 20260906021315 | 65 | 29 | 13.0 | 16.0 | 0.00 | 0.00 | 0.00 | 91 | 1019.3 |
| 20260906020816 | 65 | 29 | 13.0 | 16.0 | 0.00 | 0.00 | 0.00 | 90 | 1019.4 |
| 20260906020315 | 65 | 29 | 13.0 | 16.0 | 0.00 | 0.00 | 0.00 | 90 | 1019.3 |
| 20260906015810 | 65 | 29 | 13.0 | 16.0 | 0.00 | 0.00 | 0.00 | 89 | 1019.3 |
| 20260906015309 | 65 | 29 | 13.0 | 16.0 | 0.00 | 0.00 | 0.00 | 89 | 1019.2 |
| 20260906014808 | 65 | 29 | 13.0 | 16.0 | 0.00 | 0.00 | 0.00 | 89 | 1019.2 |
| 20260906014305 | 65 | 29 | 13.0 | 16.0 | 0.00 | 0.00 | 0.00 | 89 | 1019.0 |
| 20260906013801 | 65 | 29 | 13.0 | 16.0 | 0.00 | 0.00 | 0.00 | 90 | 1019.1 |
| 20260906013300 | 65 | 29 | 13.0 | 16.0 | 0.00 | 0.00 | 0.00 | 90 | 1018.9 |
| 20260906012756 | 65 | 29 | 13.0 | 16.0 | 0.00 | 0.00 | 0.00 | 90 | 1018.9 |
| 20260906012251 | 65 | 29 | 13.0 | 16.0 | 0.00 | 0.00 | 0.00 | 89 | 1019.0 |
| 20260906011746 | 65 | 29 | 13.0 | 16.0 | 0.00 | 0.00 | 0.00 | 89 | 1019.0 |
| 20260906011246 | 65 | 29 | 13.0 | 16.0 | 0.00 | 0.00 | 0.00 | 88 | 1018.9 |
| 20260906010741 | 65 | 29 | 13.0 | 16.0 | 0.00 | 0.00 | 0.00 | 88 | 1019.0 |
| 20260906010238 | 66 | 29 | 13.0 | 16.0 | 0.00 | 0.00 | 0.00 | 88 | 1018.8 |
| 20260906005733 | 66 | 29 | 13.0 | 16.0 | 0.00 | 0.00 | 0.00 | 87 | 1018.8 |
| 20260906005231 | 66 | 29 | 13.0 | 16.0 | 0.00 | 0.00 | 0.00 | 87 | 1018.8 |
| 20260906004726 | 66 | 29 | 13.0 | 16.0 | 0.00 | 0.00 | 0.00 | 86 | 1018.6 |
| 20260906004220 | 67 | 29 | 13.0 | 16.0 | 0.00 | 0.00 | 0.00 | 86 | 1018.7 |
| 20260906003715 | 67 | 29 | 13.0 | 16.0 | 0.00 | 0.00 | 0.00 | 85 | 1018.6 |
| 20260906003211 | 67 | 29 | 13.0 | 16.0 | 0.00 | 0.00 | 0.00 | 85 | 1018.6 |
| 20260906002705 | 67 | 29 | 13.0 | 16.0 | 0.00 | 0.00 | 0.00 | 84 | 1018.6 |
| 20260906002200 | 67 | 29 | 13.0 | 16.0 | 0.00 | 0.00 | 0.00 | 84 | 1018.3 |
| 20260906001655 | 67 | 29 | 13.0 | 16.0 | 0.00 | 0.00 | 0.00 | 84 | 1018.3 |
| 20260906001155 | 67 | 29 | 13.0 | 16.0 | 0.00 | 0.00 | 0.00 | 84 | 1018.3 |
| 20260906000651 | 67 | 29 | 13.0 | 16.0 | 0.00 | 0.00 | 0.00 | 84 | 1018.4 |
| 20260906000146 | 67 | 29 | 13.0 | 16.0 | 0.00 | 0.00 | 0.00 | 82 | 1018.4 |
| 20260905235645 | 68 | 29 | 13.0 | 16.0 | 0.00 | 0.00 | 0.00 | 82 | 1018.4 |
| 20260905235140 | 68 | 29 | 13.0 | 16.0 | 0.00 | 0.00 | 0.00 | 81 | 1018.2 |
| 20260905234635 | 68 | 29 | 13.0 | 16.0 | 0.00 | 0.00 | 0.00 | 81 | 1018.1 |
| 20260905234132 | 68 | 29 | 13.0 | 16.0 | 0.00 | 0.00 | 0.00 | 81 | 1018.1 |
| 20260905233632 | 69 | 29 | 13.0 | 16.0 | 0.00 | 0.00 | 0.00 | 81 | 1018.2 |
| 20260905233125 | 69 | 29 | 13.0 | 16.0 | 0.00 | 0.00 | 0.00 | 81 | 1018.0 |
| 20260905232621 | 69 | 29 | 13.0 | 16.0 | 0.00 | 0.00 | 0.00 | 81 | 1017.9 |
| 20260905232117 | 70 | 29 | 13.0 | 16.0 | 0.00 | 0.00 | 0.00 | 81 | 1017.9 |
| 20260905231617 | 70 | 29 | 13.0 | 16.0 | 0.00 | 0.00 | 0.00 | 79 | 1017.9 |
| 20260905231113 | 70 | 29 | 13.0 | 16.0 | 0.00 | 0.00 | 0.00 | 82 | 1018.0 |
| 20260905230609 | 71 | 29 | 13.0 | 16.0 | 0.00 | 0.00 | 0.00 | 80 | 1017.9 |
| 20260905230106 | 71 | 29 | 13.0 | 16.0 | 0.00 | 0.00 | 0.00 | 81 | 1017.9 |
| 20260905225600 | 71 | 29 | 13.0 | 16.0 | 0.00 | 0.00 | 0.00 | 81 | 1018.0 |
| 20260905225055 | 71 | 29 | 13.0 | 16.0 | 0.00 | 0.00 | 0.00 | 81 | 1017.8 |
| 20260905224549 | 71 | 29 | 13.0 | 16.0 | 0.00 | 0.00 | 0.00 | 79 | 1017.6 |
| 20260905224049 | 71 | 29 | 13.0 | 16.0 | 0.00 | 0.00 | 0.00 | 80 | 1017.8 |